Printer-friendly version
Follow the MPC on Twitter Follow the MPC on Facebook The MPC blog
Minor Planet Center

MPEC 2010-N36 : 2010 MY112

The following Minor Planet Electronic Circular may be linked-to from your own Web pages, but must not otherwise be redistributed electronically.

A form allowing access to any MPEC is at the bottom of this page.


Read MPEC 2010-N35 Read MPEC 2010-N37


M.P.E.C. 2010-N36                                Issued 2010 July 8, 18:41 UT

     The Minor Planet Electronic Circulars contain information on unusual
         minor planets and routine data on comets.  They are published
   on behalf of Commission 20 of the International Astronomical Union by the
          Minor Planet Center, Smithsonian Astrophysical Observatory,
                          Cambridge, MA 02138, U.S.A.

             Prepared using the Tamkin Foundation Computer Network

                              MPC@CFA.HARVARD.EDU
       URL http://www.minorplanetcenter.org/iau/mpc.html  ISSN 1523-6714

                                  2010 MY112

Observations:
     K10MB2Y* S2010 06 23.74410 01 47 06.86 -44 00 56.7          21   R EN036C51
     K10MB2Y  s2010 06 23.74410 1 + 4379.4405 -  785.1028 - 5290.2705   EN036C51
     K10MB2Y  S2010 06 23.87641 01 48 17.09 -44 03 16.2                 EN036C51
     K10MB2Y  s2010 06 23.87641 1 + 4381.7198 -  774.9906 - 5289.8581   EN036C51
     K10MB2Y  S2010 06 23.94249 01 48 52.29 -44 04 24.2                 EN036C51
     K10MB2Y  s2010 06 23.94249 1 + 4415.8648 -  766.7620 - 5262.5343   EN036C51
     K10MB2Y  S2010 06 24.00871 01 49 27.52 -44 05 31.3                 EN036C51
     K10MB2Y  s2010 06 24.00871 1 + 4385.8935 -  764.4403 - 5288.2249   EN036C51
     K10MB2Y  S2010 06 24.20710 01 51 12.98 -44 08 50.9                 EN036C51
     K10MB2Y  s2010 06 24.20710 1 + 4423.2873 -  746.4220 - 5259.5679   EN036C51
     K10MB2Y  S2010 06 24.20723 01 51 12.98 -44 08 51.3                 EN036C51
     K10MB2Y  s2010 06 24.20723 1 + 4358.8567 -  752.5949 - 5312.2605   EN036C51
     K10MB2Y  S2010 06 24.27332 01 51 48.11 -44 09 57.5                 EN036C51
     K10MB2Y  s2010 06 24.27332 1 + 4392.5037 -  744.5708 - 5285.4478   EN036C51
     K10MB2Y  S2010 06 24.60414 01 54 44.03 -44 15 13.7          22   R EN036C51
     K10MB2Y  s2010 06 24.60414 1 + 4369.2229 -  722.2038 - 5307.7294   EN036C51
     K10MB2Y  S2010 06 24.67023 01 55 19.19 -44 16 14.9                 EN036C51
     K10MB2Y  s2010 06 24.67023 1 + 4402.8156 -  714.0323 - 5280.9980   EN036C51
     K10MB2Y  S2010 06 24.67036 01 55 19.23 -44 16 14.9                 EN036C51
     K10MB2Y  s2010 06 24.67036 1 + 4338.1764 -  720.6729 - 5333.3786   EN036C51
     K10MB2Y  S2010 06 24.73644 01 55 54.32 -44 17 14.2                 EN036C51
     K10MB2Y  s2010 06 24.73644 1 + 4371.5875 -  712.4427 - 5307.0917   EN036C51
     K10MB2Y  S2010 06 24.80266 01 56 29.62 -44 18 16.1                 EN036C51
     K10MB2Y  s2010 06 24.80266 1 + 4340.1160 -  710.8596 - 5333.1316   EN036C51
     K10MB2Y  S2010 06 24.86875 01 57 04.76 -44 19 16.6                 EN036C51
     K10MB2Y  s2010 06 24.86875 1 + 4373.5025 -  702.3816 - 5306.8559   EN036C51
     K10MB2Y  S2010 06 25.00105 01 58 15.05 -44 21 12.7                 EN036C51
     K10MB2Y  s2010 06 25.00105 1 + 4377.2858 -  691.8200 - 5305.3782   EN036C51
     K10MB2Y  S2010 06 25.13336 01 59 25.35 -44 23 08.3                 EN036C51
     K10MB2Y  s2010 06 25.13336 1 + 4381.1776 -  681.7616 - 5303.6039   EN036C51
     K10MB2Y  S2010 06 25.13348 01 59 25.38 -44 23 08.9                 EN036C51
     K10MB2Y  s2010 06 25.13348 1 + 4316.3249 -  688.8747 - 5355.6518   EN036C51

Observer details:
C51 WISE.  Measurers A. Mainzer, E. Wright, J. Bauer, T. Grav, J. Dailey,
    J. Masiero, R. Cutri, R. McMillan, R. Walker.

Orbital elements:
2010 MY112                                               Earth MOID = 0.1914 AU
Epoch 2010 July 23.0 TT = JDT 2455400.5                 MPC
M 291.51729              (2000.0)            P               Q
n   0.93881591     Peri.  334.59480     +0.46511058     -0.65328313
a   1.0329574      Node    81.96008     +0.87966992     +0.26540050
e   0.2503741      Incl.   37.10918     +0.09926216     +0.70907245
P   1.05           H   21.0           G   0.15           U   9
Residuals in seconds of arc
100623 C51  0.2+  0.4+    100624 C51  0.4-  1.0-    100624 C51  0.5+  0.8-
100623 C51  0.7-  0.5-    100624 C51  0.1-  0.3-    100625 C51  0.1+  0.6+
100623 C51  0.1+  0.1-    100624 C51  0.1+  0.1+    100625 C51  0.1-  0.0
100624 C51  0.5+  0.4+    100624 C51  0.1-  0.0     100625 C51  0.4-  0.7-
100624 C51  0.4+  0.4+    100624 C51  0.6-  1.7+
100624 C51  0.3-  0.1-    100624 C51  0.5+  0.0

Ephemeris:
2010 MY112               a,e,i = 1.03, 0.25, 37                  q = 0.7743
Date    TT    R. A. (2000) Decl.     Delta      r     Elong.  Phase     V
2010 07 03    03 07.17   -45 05.3    0.486    1.084    84.5    69.0    22.0
2010 07 13    04 20.84   -43 15.1    0.524    1.043    78.1    72.5    22.2
2010 07 23    05 17.05   -39 44.3    0.572    1.000    72.0    75.0    22.4
2010 08 02    05 59.68   -35 29.7    0.622    0.956    66.6    76.8    22.6
2010 08 12    06 33.81   -30 51.6    0.668    0.913    61.8    78.0    22.7

Sonia Keys                   (C) Copyright 2010 MPC           M.P.E.C. 2010-N36

Read MPEC 2010-N35 Read MPEC 2010-N37


MPEC number:

Enter an MPEC number in one of the following forms:

  • 1997-B01 (the full form)
  • J97B01 (the packed version of the full form)
  • B01 (the abbreviated form)

Valid HTML 4.01!